contact:dominique.lefevre@mio.osupytheas.fr, maurice.libes@osupytheas.fr, didier.mallarino@osupytheas.fr
Project:EMSO http://www.emso-fr.org/EMSO-France
Depth: 2436.0 m
Title:EMSO Ligure Ouest : Data MII capteur CSTAR
DateTime,Latitude,Longitude,Instrument_Serial,Reference_Counts,Signal_Counts,Corrected_Signal_raw_counts,Calculated_Beam_c_inverse_meters,Internal_thermistor_counts
DateTime,Latitude,Longitude,Instrument_Serial,Reference_Counts,Signal_Counts,Corrected_Signal_raw_counts,Calculated_Beam_c_inverse_meters,Internal_thermistor_counts
2022-07-24T00:02:30,42.805,6.029,CST-1368DR,4646,5054,11587,01.194,551
2022-07-24T00:05:32,42.805,6.029,CST-1368DR,4646,5051,11580,01.196,551
2022-07-24T00:08:33,42.805,6.029,CST-1368DR,4646,5050,11577,01.197,551
2022-07-24T00:11:35,42.805,6.029,CST-1368DR,4646,5048,11574,01.198,551
2022-07-24T00:14:36,42.805,6.029,CST-1368DR,4646,5067,11618,01.183,551
2022-07-24T00:17:38,42.805,6.029,CST-1368DR,4646,5051,11580,01.196,551
2022-07-24T00:20:40,42.805,6.029,CST-1368DR,4646,5053,11584,01.195,551
2022-07-24T00:23:41,42.805,6.029,CST-1368DR,4646,5053,11584,01.195,551
2022-07-24T00:26:43,42.805,6.029,CST-1368DR,4646,5072,11629,01.179,551
2022-07-24T00:29:44,42.805,6.029,CST-1368DR,4646,5067,11617,01.183,551
2022-07-24T00:32:46,42.805,6.029,CST-1368DR,4646,5060,11600,01.189,551
2022-07-24T00:35:48,42.805,6.029,CST-1368DR,4646,5057,11594,01.191,551
2022-07-24T00:38:49,42.805,6.029,CST-1368DR,4646,5055,11588,01.193,551
2022-07-24T00:41:51,42.805,6.029,CST-1368DR,4646,5055,11589,01.193,551
2022-07-24T00:44:52,42.805,6.029,CST-1368DR,4645,5052,11584,01.195,551
2022-07-24T00:47:54,42.805,6.029,CST-1368DR,4646,5050,11579,01.196,551
2022-07-24T00:50:55,42.805,6.029,CST-1368DR,4646,5050,11579,01.196,551
2022-07-24T00:53:57,42.805,6.029,CST-1368DR,4646,5078,11642,01.175,551
2022-07-24T00:56:59,42.805,6.029,CST-1368DR,4646,5060,11602,01.188,551
2022-07-24T01:00:00,42.805,6.029,CST-1368DR,4646,5063,11608,01.186,551
2022-07-24T01:03:02,42.805,6.029,CST-1368DR,4646,5056,11592,01.192,551
2022-07-24T01:06:03,42.805,6.029,CST-1368DR,4646,5053,11584,01.195,551
2022-07-24T01:09:05,42.805,6.029,CST-1368DR,4646,5055,11588,01.193,551
2022-07-24T01:12:06,42.805,6.029,CST-1368DR,4646,5049,11576,01.197,551
2022-07-24T01:15:08,42.805,6.029,CST-1368DR,4646,5053,11584,01.195,551
2022-07-24T01:18:10,42.805,6.029,CST-1368DR,4646,5071,11626,01.180,551
2022-07-24T01:21:11,42.805,6.029,CST-1368DR,4645,5051,11582,01.195,551
2022-07-24T01:24:13,42.805,6.029,CST-1368DR,4645,5037,11550,01.206,551
2022-07-24T01:27:14,42.805,6.029,CST-1368DR,4645,5040,11557,01.204,551
2022-07-24T01:30:16,42.805,6.029,CST-1368DR,4645,5037,11550,01.206,551
2022-07-24T01:33:17,42.805,6.029,CST-1368DR,4646,5054,11587,01.194,551
2022-07-24T01:36:19,42.805,6.029,CST-1368DR,4646,5053,11585,01.194,551
2022-07-24T01:39:21,42.805,6.029,CST-1368DR,4646,5052,11583,01.195,551
2022-07-24T01:42:22,42.805,6.029,CST-1368DR,4646,5054,11588,01.193,551
2022-07-24T01:45:24,42.805,6.029,CST-1368DR,4646,5053,11586,01.194,551
2022-07-24T01:48:25,42.805,6.029,CST-1368DR,4645,5046,11570,01.200,551
2022-07-24T01:51:27,42.805,6.029,CST-1368DR,4646,5063,11609,01.186,551
2022-07-24T01:54:29,42.805,6.029,CST-1368DR,4646,5057,11595,01.191,551
2022-07-24T01:57:30,42.805,6.029,CST-1368DR,4646,5051,11580,01.196,551
2022-07-24T02:00:32,42.805,6.029,CST-1368DR,4646,5055,11590,01.193,551
2022-07-24T02:03:33,42.805,6.029,CST-1368DR,4646,5056,11591,01.192,551
2022-07-24T02:06:35,42.805,6.029,CST-1368DR,4646,5051,11580,01.196,551
2022-07-24T02:09:36,42.805,6.029,CST-1368DR,4646,5065,11611,01.185,551
2022-07-24T02:12:38,42.805,6.029,CST-1368DR,4646,5054,11587,01.194,551
2022-07-24T02:15:40,42.805,6.029,CST-1368DR,4645,5051,11583,01.195,551
2022-07-24T02:18:41,42.805,6.029,CST-1368DR,4646,5047,11571,01.199,551
2022-07-24T02:21:43,42.805,6.029,CST-1368DR,4646,5050,11578,01.197,551
2022-07-24T02:24:44,42.805,6.029,CST-1368DR,4646,5049,11575,01.198,551
2022-07-24T02:27:46,42.805,6.029,CST-1368DR,4646,5049,11576,01.197,551
2022-07-24T02:30:48,42.805,6.029,CST-1368DR,4646,5060,11601,01.189,551
2022-07-24T02:33:49,42.805,6.029,CST-1368DR,4646,5056,11592,01.192,551
2022-07-24T02:36:51,42.805,6.029,CST-1368DR,4646,5053,11584,01.195,551
2022-07-24T02:39:52,42.805,6.029,CST-1368DR,4645,5047,11574,01.198,551
2022-07-24T02:42:54,42.805,6.029,CST-1368DR,4645,5054,11590,01.193,551
2022-07-24T02:45:55,42.805,6.029,CST-1368DR,4645,5050,11580,01.196,551
2022-07-24T02:48:57,42.805,6.029,CST-1368DR,4646,5054,11586,01.194,551
2022-07-24T02:51:59,42.805,6.029,CST-1368DR,4646,5052,11582,01.195,551
2022-07-24T02:55:00,42.805,6.029,CST-1368DR,4646,5054,11588,01.193,551
2022-07-24T02:58:02,42.805,6.029,CST-1368DR,4646,5053,11584,01.195,551
2022-07-24T03:01:03,42.805,6.029,CST-1368DR,4645,5047,11572,01.199,551
2022-07-24T03:04:05,42.805,6.029,CST-1368DR,4646,5059,11599,01.190,551
2022-07-24T03:07:06,42.805,6.029,CST-1368DR,4645,5044,11566,01.201,551
2022-07-24T03:10:08,42.805,6.029,CST-1368DR,4646,5054,11586,01.194,551
2022-07-24T03:13:10,42.805,6.029,CST-1368DR,4646,5051,11581,01.196,551
2022-07-24T03:16:11,42.805,6.029,CST-1368DR,4646,5051,11580,01.196,551
2022-07-24T03:19:13,42.805,6.029,CST-1368DR,4646,5052,11582,01.195,551
2022-07-24T03:22:14,42.805,6.029,CST-1368DR,4646,5052,11583,01.195,551
2022-07-24T03:25:16,42.805,6.029,CST-1368DR,4645,5051,11582,01.195,551
2022-07-24T03:28:18,42.805,6.029,CST-1368DR,4645,5053,11588,01.193,551
2022-07-24T03:31:19,42.805,6.029,CST-1368DR,4646,5047,11571,01.199,551
2022-07-24T03:34:21,42.805,6.029,CST-1368DR,4646,5051,11581,01.196,551
2022-07-24T03:37:22,42.805,6.029,CST-1368DR,4646,5060,11600,01.189,551
2022-07-24T03:40:24,42.805,6.029,CST-1368DR,4646,5060,11601,01.189,551
2022-07-24T03:43:25,42.805,6.029,CST-1368DR,4645,5049,11579,01.196,551
2022-07-24T03:46:27,42.805,6.029,CST-1368DR,4645,5046,11571,01.199,551
2022-07-24T03:49:29,42.805,6.029,CST-1368DR,4645,5049,11578,01.197,551
2022-07-24T03:52:30,42.805,6.029,CST-1368DR,4646,5048,11574,01.198,551
2022-07-24T03:55:32,42.805,6.029,CST-1368DR,4645,5063,11610,01.186,551
2022-07-24T03:58:33,42.805,6.029,CST-1368DR,4645,5053,11588,01.193,551
2022-07-24T04:01:35,42.805,6.029,CST-1368DR,4645,5047,11574,01.198,551
2022-07-24T04:04:36,42.805,6.029,CST-1368DR,4645,5051,11583,01.195,551
2022-07-24T04:07:38,42.805,6.029,CST-1368DR,4645,5053,11587,01.194,551
2022-07-24T04:10:40,42.805,6.029,CST-1368DR,4645,5036,11548,01.207,551
2022-07-24T04:13:41,42.805,6.029,CST-1368DR,4645,5040,11558,01.204,551
2022-07-24T04:16:43,42.805,6.029,CST-1368DR,4645,5063,11610,01.186,551
2022-07-24T04:19:44,42.805,6.029,CST-1368DR,4645,5051,11582,01.195,551
2022-07-24T04:22:46,42.805,6.029,CST-1368DR,4645,5056,11593,01.192,551
2022-07-24T04:25:48,42.805,6.029,CST-1368DR,4645,5057,11597,01.190,551
2022-07-24T04:28:49,42.805,6.029,CST-1368DR,4645,5051,11582,01.195,551
2022-07-24T04:31:51,42.805,6.029,CST-1368DR,4645,5050,11579,01.196,551
2022-07-24T04:34:52,42.805,6.029,CST-1368DR,4645,5053,11588,01.193,551
2022-07-24T04:37:54,42.805,6.029,CST-1368DR,4645,5050,11580,01.196,551
2022-07-24T04:40:55,42.805,6.029,CST-1368DR,4645,5047,11573,01.198,551
2022-07-24T04:43:57,42.805,6.029,CST-1368DR,4645,5048,11575,01.198,551
2022-07-24T04:46:59,42.805,6.029,CST-1368DR,4645,5050,11579,01.196,551
2022-07-24T04:50:00,42.805,6.029,CST-1368DR,4645,5046,11572,01.199,551
2022-07-24T04:53:02,42.805,6.029,CST-1368DR,4645,5050,11581,01.196,551
2022-07-24T04:56:03,42.805,6.029,CST-1368DR,4645,5026,11524,01.215,551
2022-07-24T04:59:05,42.805,6.029,CST-1368DR,4645,5031,11538,01.211,551
2022-07-24T05:02:06,42.805,6.029,CST-1368DR,4645,5031,11536,01.211,551
2022-07-24T05:05:08,42.805,6.029,CST-1368DR,4645,5030,11535,01.212,551
2022-07-24T05:08:10,42.805,6.029,CST-1368DR,4645,5036,11548,01.207,551
2022-07-24T05:11:11,42.805,6.029,CST-1368DR,4645,5044,11566,01.201,551
2022-07-24T05:14:13,42.805,6.029,CST-1368DR,4645,5043,11565,01.201,551
2022-07-24T05:17:14,42.805,6.029,CST-1368DR,4645,5033,11542,01.209,551
2022-07-24T05:20:16,42.805,6.029,CST-1368DR,4645,5036,11548,01.207,551
2022-07-24T05:23:18,42.805,6.029,CST-1368DR,4645,5043,11564,01.202,551
2022-07-24T05:26:19,42.805,6.029,CST-1368DR,4645,5035,11547,01.207,551
2022-07-24T05:29:21,42.805,6.029,CST-1368DR,4645,5037,11550,01.206,551
2022-07-24T05:32:22,42.805,6.029,CST-1368DR,4645,5023,11519,01.217,551
2022-07-24T05:35:24,42.805,6.029,CST-1368DR,4645,5039,11554,01.205,551
2022-07-24T05:38:25,42.805,6.029,CST-1368DR,4645,5036,11549,01.207,551
2022-07-24T05:41:27,42.805,6.029,CST-1368DR,4645,5035,11545,01.208,551
2022-07-24T05:44:29,42.805,6.029,CST-1368DR,4645,5033,11542,01.209,550
2022-07-24T05:47:30,42.805,6.029,CST-1368DR,4645,5035,11546,01.208,550
2022-07-24T05:50:32,42.805,6.029,CST-1368DR,4645,5031,11537,01.211,551
2022-07-24T05:53:33,42.805,6.029,CST-1368DR,4645,5035,11547,01.207,551
2022-07-24T05:56:35,42.805,6.029,CST-1368DR,4645,5034,11544,01.209,551
2022-07-24T05:59:37,42.805,6.029,CST-1368DR,4645,5038,11552,01.206,551
2022-07-24T06:02:38,42.805,6.029,CST-1368DR,4645,5045,11568,01.200,551
2022-07-24T06:05:40,42.805,6.029,CST-1368DR,4645,5043,11563,01.202,551
2022-07-24T06:08:41,42.805,6.029,CST-1368DR,4645,5050,11581,01.196,551
2022-07-24T06:11:43,42.805,6.029,CST-1368DR,4645,5042,11562,01.202,551
2022-07-24T06:14:44,42.805,6.029,CST-1368DR,4645,5037,11551,01.206,551
2022-07-24T06:17:46,42.805,6.029,CST-1368DR,4645,5046,11571,01.199,551
2022-07-24T06:20:48,42.805,6.029,CST-1368DR,4645,5040,11558,01.204,551
2022-07-24T06:23:49,42.805,6.029,CST-1368DR,4645,5044,11566,01.201,551
2022-07-24T06:26:51,42.805,6.029,CST-1368DR,4645,5046,11571,01.199,551
2022-07-24T06:29:52,42.805,6.029,CST-1368DR,4645,5048,11576,01.197,551
2022-07-24T06:32:54,42.805,6.029,CST-1368DR,4645,5035,11547,01.207,551
2022-07-24T06:35:55,42.805,6.029,CST-1368DR,4645,5035,11545,01.208,551
2022-07-24T06:38:57,42.805,6.029,CST-1368DR,4645,5039,11555,01.205,551
2022-07-24T06:41:59,42.805,6.029,CST-1368DR,4645,5040,11558,01.204,551
2022-07-24T06:45:00,42.805,6.029,CST-1368DR,4645,5036,11547,01.207,551
2022-07-24T06:48:02,42.805,6.029,CST-1368DR,4645,5035,11546,01.208,551
2022-07-24T06:51:03,42.805,6.029,CST-1368DR,4645,5038,11553,01.205,551
2022-07-24T06:54:05,42.805,6.029,CST-1368DR,4645,5037,11551,01.206,551
2022-07-24T06:57:07,42.805,6.029,CST-1368DR,4645,5039,11555,01.205,551
2022-07-24T07:00:08,42.805,6.029,CST-1368DR,4645,5040,11556,01.204,551
2022-07-24T07:03:10,42.805,6.029,CST-1368DR,4645,5039,11555,01.205,551
2022-07-24T07:06:11,42.805,6.029,CST-1368DR,4645,5032,11539,01.210,551
2022-07-24T07:09:13,42.805,6.029,CST-1368DR,4645,5043,11563,01.202,551
2022-07-24T07:12:14,42.805,6.029,CST-1368DR,4645,5037,11550,01.206,551
2022-07-24T07:15:16,42.805,6.029,CST-1368DR,4645,5042,11562,01.202,551
2022-07-24T07:18:18,42.805,6.029,CST-1368DR,4645,5029,11531,01.213,551
2022-07-24T07:21:19,42.805,6.029,CST-1368DR,4645,5046,11570,01.200,551
2022-07-24T07:24:21,42.805,6.029,CST-1368DR,4645,5030,11535,01.212,551
2022-07-24T07:27:22,42.805,6.029,CST-1368DR,4645,5040,11557,01.204,551
2022-07-24T07:30:24,42.805,6.029,CST-1368DR,4645,5047,11574,01.198,551
2022-07-24T07:33:25,42.805,6.029,CST-1368DR,4645,5041,11559,01.203,551
2022-07-24T07:36:27,42.805,6.029,CST-1368DR,4645,5044,11566,01.201,551
2022-07-24T07:39:29,42.805,6.029,CST-1368DR,4645,5042,11562,01.202,551
2022-07-24T07:42:30,42.805,6.029,CST-1368DR,4645,5039,11556,01.204,551
2022-07-24T07:45:32,42.805,6.029,CST-1368DR,4645,5047,11574,01.198,551
2022-07-24T07:48:33,42.805,6.029,CST-1368DR,4645,5044,11567,01.201,551
2022-07-24T07:51:35,42.805,6.029,CST-1368DR,4645,5037,11551,01.206,551
2022-07-24T07:54:37,42.805,6.029,CST-1368DR,4645,5032,11539,01.210,551
2022-07-24T07:57:38,42.805,6.029,CST-1368DR,4645,5040,11558,01.204,551
2022-07-24T08:00:40,42.805,6.029,CST-1368DR,4645,5051,11583,01.195,551
2022-07-24T08:03:41,42.805,6.029,CST-1368DR,4645,5037,11550,01.206,551
2022-07-24T08:06:43,42.805,6.029,CST-1368DR,4645,5036,11547,01.207,551
2022-07-24T08:09:44,42.805,6.029,CST-1368DR,4645,5037,11550,01.206,551
2022-07-24T08:12:46,42.805,6.029,CST-1368DR,4645,5029,11532,01.213,551
2022-07-24T08:15:48,42.805,6.029,CST-1368DR,4645,5037,11550,01.206,551
2022-07-24T08:18:49,42.805,6.029,CST-1368DR,4645,5042,11562,01.202,551
2022-07-24T08:21:51,42.805,6.029,CST-1368DR,4645,5029,11532,01.213,551
2022-07-24T08:24:52,42.805,6.029,CST-1368DR,4645,5048,11575,01.198,551
2022-07-24T08:27:54,42.805,6.029,CST-1368DR,4645,5031,11536,01.211,551
2022-07-24T08:30:55,42.805,6.029,CST-1368DR,4645,5031,11536,01.211,551
2022-07-24T08:33:57,42.805,6.029,CST-1368DR,4645,5032,11540,01.210,551
2022-07-24T08:36:59,42.805,6.029,CST-1368DR,4645,5041,11559,01.203,551
2022-07-24T08:40:00,42.805,6.029,CST-1368DR,4645,5048,11576,01.197,551
2022-07-24T08:43:02,42.805,6.029,CST-1368DR,4645,5037,11550,01.206,551
2022-07-24T08:46:03,42.805,6.029,CST-1368DR,4645,5034,11544,01.209,551
2022-07-24T08:49:05,42.805,6.029,CST-1368DR,4645,5033,11541,01.210,551
2022-07-24T08:52:07,42.805,6.029,CST-1368DR,4645,5047,11573,01.198,551
2022-07-24T08:55:08,42.805,6.029,CST-1368DR,4645,5033,11542,01.209,551
2022-07-24T08:58:10,42.805,6.029,CST-1368DR,4645,5038,11552,01.206,551
2022-07-24T09:01:11,42.805,6.029,CST-1368DR,4645,5037,11551,01.206,551
2022-07-24T09:04:13,42.805,6.029,CST-1368DR,4645,5041,11559,01.203,551
2022-07-24T09:07:14,42.805,6.029,CST-1368DR,4645,5041,11560,01.203,551
2022-07-24T09:10:16,42.805,6.029,CST-1368DR,4645,5050,11579,01.196,551
2022-07-24T09:13:18,42.805,6.029,CST-1368DR,4645,5035,11546,01.208,551
2022-07-24T09:16:19,42.805,6.029,CST-1368DR,4645,5036,11548,01.207,551
2022-07-24T09:19:21,42.805,6.029,CST-1368DR,4645,5038,11553,01.205,551
2022-07-24T09:22:22,42.805,6.029,CST-1368DR,4645,5038,11552,01.206,551
2022-07-24T09:25:24,42.805,6.029,CST-1368DR,4645,5041,11559,01.203,551
2022-07-24T09:28:26,42.805,6.029,CST-1368DR,4645,5032,11539,01.210,551
2022-07-24T09:31:27,42.805,6.029,CST-1368DR,4645,5034,11544,01.209,551
2022-07-24T09:34:29,42.805,6.029,CST-1368DR,4645,5040,11557,01.204,551
2022-07-24T09:37:30,42.805,6.029,CST-1368DR,4645,5035,11546,01.208,551
2022-07-24T09:40:32,42.805,6.029,CST-1368DR,4645,5036,11548,01.207,551
2022-07-24T09:43:33,42.805,6.029,CST-1368DR,4645,5029,11533,01.212,551
2022-07-24T09:46:35,42.805,6.029,CST-1368DR,4645,5035,11546,01.208,551
2022-07-24T09:49:37,42.805,6.029,CST-1368DR,4645,5036,11548,01.207,551
2022-07-24T09:52:38,42.805,6.029,CST-1368DR,4645,5041,11559,01.203,551
2022-07-24T09:55:40,42.805,6.029,CST-1368DR,4645,5035,11546,01.208,551
2022-07-24T09:58:41,42.805,6.029,CST-1368DR,4645,5038,11553,01.205,551
2022-07-24T10:01:43,42.805,6.029,CST-1368DR,4645,5035,11546,01.208,551
2022-07-24T10:04:44,42.805,6.029,CST-1368DR,4645,5043,11563,01.202,551
2022-07-24T10:07:46,42.805,6.029,CST-1368DR,4645,5036,11548,01.207,551
2022-07-24T10:10:48,42.805,6.029,CST-1368DR,4645,5032,11539,01.210,551
2022-07-24T10:13:49,42.805,6.029,CST-1368DR,4645,5031,11536,01.211,551
2022-07-24T10:16:51,42.805,6.029,CST-1368DR,4645,5036,11547,01.207,551
2022-07-24T10:19:52,42.805,6.029,CST-1368DR,4645,5031,11536,01.211,551
2022-07-24T10:22:54,42.805,6.029,CST-1368DR,4645,5034,11544,01.209,551
2022-07-24T10:25:56,42.805,6.029,CST-1368DR,4645,5034,11544,01.209,551
2022-07-24T10:28:57,42.805,6.029,CST-1368DR,4645,5037,11550,01.206,551
2022-07-24T10:31:59,42.805,6.029,CST-1368DR,4645,5032,11540,01.210,551
2022-07-24T10:35:00,42.805,6.029,CST-1368DR,4645,5037,11550,01.206,551
2022-07-24T10:38:02,42.805,6.029,CST-1368DR,4645,5032,11539,01.210,551
2022-07-24T10:41:03,42.805,6.029,CST-1368DR,4645,5029,11532,01.213,551
2022-07-24T10:44:05,42.805,6.029,CST-1368DR,4645,5039,11555,01.205,551
2022-07-24T10:47:07,42.805,6.029,CST-1368DR,4645,5030,11535,01.212,551
2022-07-24T10:50:08,42.805,6.029,CST-1368DR,4645,5027,11527,01.214,551
2022-07-24T10:53:10,42.805,6.029,CST-1368DR,4645,5035,11546,01.208,551
2022-07-24T10:56:11,42.805,6.029,CST-1368DR,4645,5023,11519,01.217,551
2022-07-24T10:59:13,42.805,6.029,CST-1368DR,4645,5036,11548,01.207,551
2022-07-24T11:02:14,42.805,6.029,CST-1368DR,4645,5057,11597,01.190,551
2022-07-24T11:05:16,42.805,6.029,CST-1368DR,4645,5038,11553,01.205,551
2022-07-24T11:08:18,42.805,6.029,CST-1368DR,4645,5031,11537,01.211,551
2022-07-24T11:11:19,42.805,6.029,CST-1368DR,4645,5036,11548,01.207,551
2022-07-24T11:14:21,42.805,6.029,CST-1368DR,4645,5028,11531,01.213,551
2022-07-24T11:17:22,42.805,6.029,CST-1368DR,4645,5025,11522,01.216,551
2022-07-24T11:20:24,42.805,6.029,CST-1368DR,4645,5028,11529,01.214,551
2022-07-24T11:23:26,42.805,6.029,CST-1368DR,4645,5029,11532,01.213,551
2022-07-24T11:26:27,42.805,6.029,CST-1368DR,4645,5036,11547,01.207,551
2022-07-24T11:29:29,42.805,6.029,CST-1368DR,4645,5028,11529,01.214,551
2022-07-24T11:32:30,42.805,6.029,CST-1368DR,4645,5032,11540,01.210,551
2022-07-24T11:35:32,42.805,6.029,CST-1368DR,4645,5032,11540,01.210,551
2022-07-24T11:38:33,42.805,6.029,CST-1368DR,4645,5028,11529,01.214,551
2022-07-24T11:41:35,42.805,6.029,CST-1368DR,4645,5038,11552,01.206,551
2022-07-24T11:44:37,42.805,6.029,CST-1368DR,4645,5031,11536,01.211,551
2022-07-24T11:47:38,42.805,6.029,CST-1368DR,4645,5031,11537,01.211,551
2022-07-24T11:50:40,42.805,6.029,CST-1368DR,4645,5030,11535,01.212,551
2022-07-24T11:53:41,42.805,6.029,CST-1368DR,4645,5027,11527,01.214,551
2022-07-24T11:56:43,42.805,6.029,CST-1368DR,4645,5032,11539,01.210,551
2022-07-24T11:59:44,42.805,6.029,CST-1368DR,4645,5033,11542,01.209,551
2022-07-24T12:02:46,42.805,6.029,CST-1368DR,4645,5030,11534,01.212,551
2022-07-24T12:05:48,42.805,6.029,CST-1368DR,4645,5027,11528,01.214,551
2022-07-24T12:08:49,42.805,6.029,CST-1368DR,4645,5033,11541,01.210,551
2022-07-24T12:11:51,42.805,6.029,CST-1368DR,4645,5030,11534,01.212,551
2022-07-24T12:14:52,42.805,6.029,CST-1368DR,4645,5027,11527,01.214,551
2022-07-24T12:17:54,42.805,6.029,CST-1368DR,4645,5025,11524,01.215,551
2022-07-24T12:20:56,42.805,6.029,CST-1368DR,4645,5033,11542,01.209,551
2022-07-24T12:23:57,42.805,6.029,CST-1368DR,4645,5024,11521,01.216,551
2022-07-24T12:26:59,42.805,6.029,CST-1368DR,4645,5029,11532,01.213,551
2022-07-24T12:30:00,42.805,6.029,CST-1368DR,4645,5026,11524,01.215,551
2022-07-24T12:33:02,42.805,6.029,CST-1368DR,4645,5040,11558,01.204,551
2022-07-24T12:36:03,42.805,6.029,CST-1368DR,4645,5032,11540,01.210,551
2022-07-24T12:39:05,42.805,6.029,CST-1368DR,4645,5034,11544,01.209,551
2022-07-24T12:42:07,42.805,6.029,CST-1368DR,4645,5028,11529,01.214,551
2022-07-24T12:45:08,42.805,6.029,CST-1368DR,4645,5032,11540,01.210,551
2022-07-24T12:48:10,42.805,6.029,CST-1368DR,4645,5032,11539,01.210,551
2022-07-24T12:51:11,42.805,6.029,CST-1368DR,4645,5030,11534,01.212,551
2022-07-24T12:54:13,42.805,6.029,CST-1368DR,4645,5031,11538,01.211,551
2022-07-24T12:57:15,42.805,6.029,CST-1368DR,4645,5023,11519,01.217,551
2022-07-24T13:00:16,42.805,6.029,CST-1368DR,4645,5030,11534,01.212,551
2022-07-24T13:03:18,42.805,6.029,CST-1368DR,4645,5026,11525,01.215,551
2022-07-24T13:06:19,42.805,6.029,CST-1368DR,4645,5028,11529,01.214,551
2022-07-24T13:09:21,42.805,6.029,CST-1368DR,4645,5033,11542,01.209,551
2022-07-24T13:12:22,42.805,6.029,CST-1368DR,4645,5024,11520,01.217,551
2022-07-24T13:15:24,42.805,6.029,CST-1368DR,4645,5032,11539,01.210,551
2022-07-24T13:18:26,42.805,6.029,CST-1368DR,4645,5022,11516,01.218,551
2022-07-24T13:21:27,42.805,6.029,CST-1368DR,4645,5026,11525,01.215,551
2022-07-24T13:24:29,42.805,6.029,CST-1368DR,4645,5029,11533,01.212,551
2022-07-24T13:27:30,42.805,6.029,CST-1368DR,4645,5023,11517,01.218,551
2022-07-24T13:30:32,42.805,6.029,CST-1368DR,4645,5029,11532,01.213,551
2022-07-24T13:33:33,42.805,6.029,CST-1368DR,4645,5029,11531,01.213,551
2022-07-24T13:36:35,42.805,6.029,CST-1368DR,4645,5033,11540,01.210,551
2022-07-24T13:39:37,42.805,6.029,CST-1368DR,4645,5034,11543,01.209,551
2022-07-24T13:42:38,42.805,6.029,CST-1368DR,4645,5037,11551,01.206,551
2022-07-24T13:45:40,42.805,6.029,CST-1368DR,4644,5033,11544,01.209,550
2022-07-24T13:48:41,42.805,6.029,CST-1368DR,4645,5040,11558,01.204,551
2022-07-24T13:51:43,42.805,6.029,CST-1368DR,4645,5038,11552,01.206,551
2022-07-24T13:54:45,42.805,6.029,CST-1368DR,4645,5027,11528,01.214,551
2022-07-24T13:57:46,42.805,6.029,CST-1368DR,4645,5027,11528,01.214,551
2022-07-24T14:00:48,42.805,6.029,CST-1368DR,4645,5043,11563,01.202,551
2022-07-24T14:03:49,42.805,6.029,CST-1368DR,4645,5036,11547,01.207,551
2022-07-24T14:06:51,42.805,6.029,CST-1368DR,4645,5033,11542,01.209,551
2022-07-24T14:09:52,42.805,6.029,CST-1368DR,4645,5026,11524,01.215,551
2022-07-24T14:12:54,42.805,6.029,CST-1368DR,4645,5027,11528,01.214,551
2022-07-24T14:15:56,42.805,6.029,CST-1368DR,4645,5028,11531,01.213,551
2022-07-24T14:18:57,42.805,6.029,CST-1368DR,4645,5026,11525,01.215,551
2022-07-24T14:21:59,42.805,6.029,CST-1368DR,4645,5033,11540,01.210,551
2022-07-24T14:25:00,42.805,6.029,CST-1368DR,4645,5026,11526,01.215,551
2022-07-24T14:28:02,42.805,6.029,CST-1368DR,4645,5025,11522,01.216,551
2022-07-24T14:31:03,42.805,6.029,CST-1368DR,4645,5026,11525,01.215,551
2022-07-24T14:34:05,42.805,6.029,CST-1368DR,4645,5029,11531,01.213,551
2022-07-24T14:37:07,42.805,6.029,CST-1368DR,4644,5031,11539,01.210,551
2022-07-24T14:40:08,42.805,6.029,CST-1368DR,4644,5024,11524,01.215,551
2022-07-24T14:43:10,42.805,6.029,CST-1368DR,4645,5031,11537,01.211,551
2022-07-24T14:46:11,42.805,6.029,CST-1368DR,4645,5027,11527,01.214,551
2022-07-24T14:49:13,42.805,6.029,CST-1368DR,4645,5027,11528,01.214,551
2022-07-24T14:52:14,42.805,6.029,CST-1368DR,4645,5023,11519,01.217,551
2022-07-24T14:55:16,42.805,6.029,CST-1368DR,4645,5022,11515,01.219,551
2022-07-24T14:58:18,42.805,6.029,CST-1368DR,4644,5030,11538,01.211,551
2022-07-24T15:01:19,42.805,6.029,CST-1368DR,4645,5030,11534,01.212,551
2022-07-24T15:04:21,42.805,6.029,CST-1368DR,4645,5031,11536,01.211,551
2022-07-24T15:07:22,42.805,6.029,CST-1368DR,4645,5028,11529,01.214,551
2022-07-24T15:10:24,42.805,6.029,CST-1368DR,4645,5031,11536,01.211,551
2022-07-24T15:13:26,42.805,6.029,CST-1368DR,4645,5029,11532,01.213,551
2022-07-24T15:16:27,42.805,6.029,CST-1368DR,4645,5027,11527,01.214,551
2022-07-24T15:19:29,42.805,6.029,CST-1368DR,4644,5026,11527,01.214,551
2022-07-24T15:22:30,42.805,6.029,CST-1368DR,4644,5026,11528,01.214,551
2022-07-24T15:25:32,42.805,6.029,CST-1368DR,4644,5030,11536,01.211,551
2022-07-24T15:28:33,42.805,6.029,CST-1368DR,4644,5025,11526,01.215,551
2022-07-24T15:31:35,42.805,6.029,CST-1368DR,4645,5027,11527,01.214,551
2022-07-24T15:34:37,42.805,6.029,CST-1368DR,4644,5031,11539,01.210,551
2022-07-24T15:37:38,42.805,6.029,CST-1368DR,4645,5033,11541,01.210,551
2022-07-24T15:40:40,42.805,6.029,CST-1368DR,4645,5032,11539,01.210,551
2022-07-24T15:43:41,42.805,6.029,CST-1368DR,4644,5029,11535,01.212,551
2022-07-24T15:46:43,42.805,6.029,CST-1368DR,4644,5029,11534,01.212,551
2022-07-24T15:49:45,42.805,6.029,CST-1368DR,4644,5029,11535,01.212,551
2022-07-24T15:52:46,42.805,6.029,CST-1368DR,4644,5030,11536,01.211,551
2022-07-24T15:55:48,42.805,6.029,CST-1368DR,4644,5030,11537,01.211,551
2022-07-24T15:58:49,42.805,6.029,CST-1368DR,4645,5031,11538,01.211,551
2022-07-24T16:01:51,42.805,6.029,CST-1368DR,4645,5038,11553,01.205,551
2022-07-24T16:04:52,42.805,6.029,CST-1368DR,4644,5026,11528,01.214,551
2022-07-24T16:07:54,42.805,6.029,CST-1368DR,4644,5033,11543,01.209,551
2022-07-24T16:10:56,42.805,6.029,CST-1368DR,4644,5030,11538,01.211,551
2022-07-24T16:13:57,42.805,6.029,CST-1368DR,4645,5034,11543,01.209,551
2022-07-24T16:16:59,42.805,6.029,CST-1368DR,4645,5040,11558,01.204,551
2022-07-24T16:20:00,42.805,6.029,CST-1368DR,4645,5045,11570,01.200,551
2022-07-24T16:23:02,42.805,6.029,CST-1368DR,4644,5038,11555,01.205,551
2022-07-24T16:26:03,42.805,6.029,CST-1368DR,4644,5041,11563,01.202,551
2022-07-24T16:29:05,42.805,6.029,CST-1368DR,4645,5041,11559,01.203,551
2022-07-24T16:32:07,42.805,6.029,CST-1368DR,4644,5039,11557,01.204,551
2022-07-24T16:35:08,42.805,6.029,CST-1368DR,4645,5035,11545,01.208,551
2022-07-24T16:38:10,42.805,6.029,CST-1368DR,4644,5037,11553,01.205,551